Location: Chenereilles
(45.4866°N, 4.0790°E)
Time: 01:19:05
(UTC+00:00)

Ariane Rocket - Pass Details

Date: 12 November 2019
Orbit: 759 x 771 km, 98.7° (Epoch: 09 December)

Event Time Altitude Azimuth Distance (km) Brightness Sun altitude
Exits shadow 19:05:21 65° 289° (WNW) 848 3.3 -29.6°
Drops below altitude 10° 19:10:01 10° 341° (NNW) 2,318 5.7 -30.4°
Sets 19:12:21 0° 344° (NNW) 3,247 6.5 -30.8°
